�������l�o���
Date,Time,MP-1(��Sv/h),MP-2(��Sv/h),MP-3(��Sv/h),MP-4(��Sv/h),MP-5(��Sv/h),MP-6(��Sv/h),MP-7(��Sv/h),MP-8(��Sv/h),����,����(m/s),���J
2023/09/02,00:00,0.556,0.844,0.517,1.053,0.764,0.330,0.591,0.544,��,5.1,��
2023/09/02,00:10,0.556,0.843,0.517,1.054,0.765,0.330,0.591,0.545,��,4.9,��
2023/09/02,00:20,0.558,0.843,0.518,1.053,0.765,0.330,0.592,0.543,��,5.6,��
2023/09/02,00:30,0.558,0.845,0.517,1.054,0.763,0.330,0.592,0.545,��,6.0,��
2023/09/02,00:40,0.557,0.842,0.516,1.052,0.766,0.329,0.592,0.545,��,5.0,��
2023/09/02,00:50,0.558,0.847,0.517,1.051,0.764,0.330,0.590,0.546,��,5.6,��
2023/09/02,01:00,0.558,0.843,0.516,1.053,0.763,0.329,0.591,0.546,��쐼,5.3,��
2023/09/02,01:10,0.557,0.844,0.517,1.052,0.767,0.329,0.592,0.544,��,5.5,��
2023/09/02,01:20,0.557,0.844,0.518,1.054,0.764,0.330,0.591,0.545,��쐼,4.7,��
2023/09/02,01:30,0.558,0.844,0.516,1.053,0.764,0.330,0.593,0.546,��쐼,4.4,��
2023/09/02,01:40,0.556,0.844,0.516,1.053,0.765,0.328,0.593,0.544,��쐼,4.4,��
2023/09/02,01:50,0.557,0.844,0.518,1.053,0.766,0.330,0.591,0.546,��,4.9,��
2023/09/02,02:00,0.557,0.844,0.517,1.055,0.762,0.329,0.592,0.546,��,5.5,��
2023/09/02,02:10,0.557,0.845,0.519,1.053,0.765,0.329,0.592,0.545,��쐼,5.0,��
2023/09/02,02:20,0.558,0.843,0.517,1.054,0.764,0.330,0.591,0.545,��,5.1,��
2023/09/02,02:30,0.560,0.845,0.517,1.053,0.764,0.329,0.592,0.544,��,5.7,��
2023/09/02,02:40,0.557,0.845,0.518,1.053,0.765,0.331,0.591,0.544,��,6.0,��
2023/09/02,02:50,0.557,0.845,0.516,1.053,0.765,0.331,0.590,0.543,��,5.4,��
2023/09/02,03:00,0.557,0.845,0.516,1.055,0.764,0.330,0.590,0.543,��,5.4,��
2023/09/02,03:10,0.558,0.845,0.516,1.053,0.764,0.330,0.591,0.545,��,5.9,��
2023/09/02,03:20,0.558,0.844,0.517,1.054,0.765,0.329,0.591,0.545,��,6.2,��
2023/09/02,03:30,0.557,0.849,0.518,1.053,0.765,0.329,0.591,0.546,��,6.4,��
2023/09/02,03:40,0.557,0.843,0.517,1.055,0.764,0.329,0.590,0.547,��,5.6,��
2023/09/02,03:50,0.556,0.844,0.517,1.052,0.765,0.329,0.592,0.545,��,4.7,��
2023/09/02,04:00,0.556,0.845,0.517,1.054,0.765,0.331,0.590,0.545,��,4.7,��
2023/09/02,04:10,0.559,0.846,0.519,1.055,0.765,0.329,0.590,0.545,��,4.5,��
2023/09/02,04:20,0.559,0.844,0.518,1.055,0.764,0.331,0.591,0.544,��,5.4,��
2023/09/02,04:30,0.558,0.844,0.516,1.054,0.765,0.329,0.592,0.544,��,5.2,��
2023/09/02,04:40,0.559,0.845,0.516,1.055,0.765,0.330,0.592,0.546,��,6.3,��
2023/09/02,04:50,0.556,0.844,0.519,1.053,0.766,0.330,0.591,0.545,��,6.8,��
2023/09/02,05:00,0.556,0.845,0.516,1.053,0.763,0.330,0.592,0.547,��,6.0,��
2023/09/02,05:10,0.556,0.845,0.519,1.052,0.765,0.329,0.593,0.547,��,5.7,��
2023/09/02,05:20,0.556,0.844,0.518,1.055,0.765,0.330,0.591,0.544,��,4.8,��
2023/09/02,05:30,0.558,0.844,0.518,1.055,0.765,0.329,0.592,0.544,��쐼,4.3,��
2023/09/02,05:40,0.557,0.845,0.518,1.054,0.762,0.331,0.592,0.545,��쐼,4.9,��
2023/09/02,05:50,0.557,0.845,0.519,1.054,0.765,0.329,0.591,0.545,��쐼,4.4,��
2023/09/02,06:00,0.557,0.844,0.519,1.055,0.765,0.329,0.591,0.545,��쐼,5.2,��
2023/09/02,06:10,0.558,0.844,0.517,1.054,0.767,0.329,0.591,0.545,��,4.5,��
2023/09/02,06:20,0.558,0.844,0.517,1.054,0.766,0.329,0.590,0.546,��,4.5,��
2023/09/02,06:30,0.558,0.845,0.515,1.055,0.764,0.330,0.593,0.546,��,5.2,��
2023/09/02,06:40,0.558,0.844,0.517,1.054,0.763,0.331,0.592,0.544,��,3.5,��
2023/09/02,06:50,0.560,0.845,0.519,1.053,0.764,0.331,0.590,0.545,��,3.5,��
2023/09/02,07:00,0.558,0.844,0.518,1.054,0.765,0.329,0.591,0.545,��,2.2,��
2023/09/02,07:10,0.559,0.843,0.517,1.055,0.766,0.328,0.593,0.545,��,1.7,��
2023/09/02,07:20,0.555,0.844,0.518,1.054,0.763,0.329,0.590,0.544,��,0.6,��
2023/09/02,07:30,0.557,0.844,0.517,1.054,0.764,0.330,0.593,0.545,-,CALM,��
2023/09/02,07:40,0.557,0.844,0.518,1.054,0.764,0.331,0.593,0.545,�쓌,1.7,��
2023/09/02,07:50,0.559,0.842,0.518,1.054,0.763,0.329,0.594,0.545,���쓌,1.2,��
2023/09/02,08:00,0.555,0.843,0.517,1.055,0.764,0.330,0.594,0.545,�쓌,2.5,��
2023/09/02,08:10,0.558,0.845,0.517,1.055,0.763,0.330,0.593,0.545,�쓌,4.9,��
2023/09/02,08:20,0.557,0.843,0.516,1.055,0.765,0.330,0.594,0.546,��쓌,5.6,��
2023/09/02,08:30,0.558,0.845,0.517,1.054,0.765,0.330,0.592,0.545,��쓌,5.5,��
2023/09/02,08:40,0.557,0.843,0.518,1.054,0.765,0.330,0.594,0.544,��쓌,5.6,��
2023/09/02,08:50,0.558,0.843,0.516,1.055,0.763,0.331,0.593,0.544,��쓌,6.7,��
2023/09/02,09:00,0.558,0.843,0.518,1.056,0.765,0.329,0.594,0.543,��쓌,7.5,��
2023/09/02,09:10,0.555,0.845,0.517,1.053,0.765,0.330,0.592,0.544,��쓌,7.1,��
2023/09/02,09:20,0.557,0.845,0.517,1.053,0.766,0.329,0.592,0.544,��쓌,7.1,��
2023/09/02,09:30,0.558,0.843,0.516,1.052,0.764,0.328,0.590,0.543,��쓌,8.9,��
2023/09/02,09:40,0.556,0.844,0.517,1.052,0.765,0.330,0.593,0.543,��쓌,10.8,��
2023/09/02,09:50,0.558,0.843,0.517,1.054,0.763,0.328,0.591,0.545,��쓌,9.7,��
2023/09/02,10:00,0.557,0.843,0.517,1.054,0.766,0.330,0.591,0.545,��쓌,9.1,��
2023/09/02,10:10,0.557,0.846,0.518,1.056,0.765,0.329,0.592,0.543,��쓌,8.5,��
2023/09/02,10:20,0.558,0.844,0.518,1.055,0.763,0.329,0.591,0.545,��쓌,8.0,��
2023/09/02,10:30,0.558,0.844,0.518,1.054,0.764,0.329,0.592,0.544,��쓌,10.2,��
2023/09/02,10:40,0.557,0.844,0.518,1.056,0.765,0.329,0.592,0.545,��,8.7,��
2023/09/02,10:50,0.558,0.846,0.518,1.056,0.766,0.329,0.592,0.544,��쓌,9.2,��
2023/09/02,11:00,0.558,0.846,0.518,1.054,0.766,0.329,0.592,0.544,��쓌,10.5,��
2023/09/02,11:10,0.558,0.847,0.518,1.056,0.769,0.330,0.590,0.544,��쓌,10.3,��
2023/09/02,11:20,0.557,0.843,0.518,1.058,0.767,0.330,0.592,0.545,��쓌,10.6,��
2023/09/02,11:30,0.556,0.844,0.519,1.058,0.767,0.329,0.591,0.544,��쓌,11.3,��
2023/09/02,11:40,0.559,0.844,0.521,1.057,0.766,0.330,0.590,0.544,��쓌,12.0,��
2023/09/02,11:50,0.557,0.845,0.518,1.056,0.767,0.331,0.591,0.545,��,11.6,��
2023/09/02,12:00,0.558,0.847,0.517,1.057,0.766,0.329,0.591,0.544,��쓌,10.0,��
2023/09/02,12:10,0.559,0.848,0.518,1.058,0.768,0.328,0.591,0.544,��,11.0,��
2023/09/02,12:20,0.558,0.845,0.517,1.057,0.767,0.329,0.592,0.545,��,11.1,��
2023/09/02,12:30,0.558,0.843,0.517,1.058,0.768,0.329,0.593,0.544,��쓌,9.5,��
2023/09/02,12:40,0.558,0.845,0.519,1.057,0.767,0.329,0.593,0.544,��,10.3,��
2023/09/02,12:50,0.558,0.846,0.518,1.057,0.768,0.328,0.593,0.546,��,11.0,��
2023/09/02,13:00,0.559,0.844,0.516,1.057,0.767,0.328,0.594,0.544,��쓌,10.2,��
2023/09/02,13:10,0.557,0.847,0.516,1.059,0.768,0.329,0.593,0.545,��쓌,9.5,��
2023/09/02,13:20,0.557,0.845,0.519,1.056,0.768,0.329,0.592,0.544,��,8.7,��
2023/09/02,13:30,0.556,0.845,0.518,1.056,0.768,0.328,0.594,0.546,��,10.5,��
2023/09/02,13:40,0.557,0.844,0.519,1.056,0.767,0.329,0.593,0.546,��쓌,10.3,��
2023/09/02,13:50,0.559,0.845,0.519,1.058,0.768,0.330,0.593,0.546,��,10.2,��
2023/09/02,14:00,0.558,0.845,0.517,1.058,0.766,0.330,0.592,0.545,��쓌,9.7,��
2023/09/02,14:10,0.557,0.846,0.516,1.057,0.767,0.328,0.592,0.546,��,9.7,��
2023/09/02,14:20,0.556,0.845,0.518,1.058,0.767,0.329,0.591,0.545,��,8.7,��
2023/09/02,14:30,0.559,0.843,0.518,1.057,0.767,0.328,0.592,0.543,��,9.8,��
2023/09/02,14:40,0.557,0.846,0.520,1.060,0.767,0.329,0.592,0.544,��,9.5,��
2023/09/02,14:50,0.558,0.846,0.519,1.059,0.766,0.327,0.591,0.545,��쓌,9.6,��
2023/09/02,15:00,0.557,0.845,0.519,1.056,0.768,0.328,0.591,0.544,��,7.7,��
2023/09/02,15:10,0.557,0.845,0.517,1.055,0.767,0.328,0.591,0.544,��,8.3,��
2023/09/02,15:20,0.558,0.844,0.518,1.058,0.766,0.329,0.592,0.545,��,6.7,��
2023/09/02,15:30,0.559,0.846,0.517,1.058,0.766,0.328,0.594,0.545,��쓌,8.4,��
2023/09/02,15:40,0.557,0.844,0.517,1.055,0.768,0.329,0.592,0.546,��,8.9,��
2023/09/02,15:50,0.558,0.844,0.517,1.057,0.767,0.330,0.592,0.545,��,9.0,��
2023/09/02,16:00,0.557,0.847,0.516,1.056,0.766,0.329,0.592,0.545,��,10.3,��
2023/09/02,16:10,0.557,0.844,0.518,1.056,0.767,0.331,0.589,0.546,��,7.9,��
2023/09/02,16:20,0.557,0.845,0.517,1.055,0.767,0.329,0.592,0.543,��,8.9,��
2023/09/02,16:30,0.558,0.845,0.517,1.058,0.769,0.329,0.591,0.546,��쓌,10.0,��
2023/09/02,16:40,0.558,0.844,0.517,1.058,0.766,0.329,0.591,0.544,��쓌,10.3,��
2023/09/02,16:50,0.557,0.844,0.516,1.056,0.768,0.330,0.590,0.545,��,8.6,��
2023/09/02,17:00,0.559,0.844,0.517,1.053,0.764,0.330,0.591,0.544,��,9.1,��
2023/09/02,17:10,0.558,0.845,0.515,1.056,0.766,0.331,0.591,0.545,��,8.2,��
2023/09/02,17:20,0.558,0.846,0.515,1.056,0.766,0.328,0.591,0.545,��쓌,9.9,��
2023/09/02,17:30,0.557,0.846,0.516,1.055,0.763,0.330,0.591,0.543,��,8.4,��
2023/09/02,17:40,0.559,0.845,0.516,1.053,0.767,0.328,0.590,0.543,��,9.0,��
2023/09/02,17:50,0.560,0.845,0.517,1.056,0.766,0.329,0.590,0.544,��쓌,8.4,��
2023/09/02,18:00,0.557,0.844,0.517,1.055,0.764,0.329,0.591,0.545,��,8.2,��
2023/09/02,18:10,0.558,0.844,0.516,1.056,0.767,0.329,0.591,0.544,��,8.6,��
2023/09/02,18:20,0.561,0.842,0.516,1.055,0.765,0.329,0.591,0.544,��,8.8,��
2023/09/02,18:30,0.558,0.846,0.515,1.057,0.764,0.330,0.593,0.545,��,8.8,��
2023/09/02,18:40,0.558,0.845,0.517,1.057,0.766,0.331,0.590,0.545,��,8.9,��
2023/09/02,18:50,0.559,0.844,0.515,1.055,0.766,0.330,0.591,0.544,��,8.2,��
2023/09/02,19:00,0.558,0.847,0.518,1.057,0.766,0.330,0.592,0.544,��,7.5,��
2023/09/02,19:10,0.560,0.847,0.516,1.055,0.767,0.330,0.594,0.544,��,7.1,��
2023/09/02,19:20,0.558,0.847,0.517,1.055,0.765,0.331,0.592,0.544,��,6.2,��
2023/09/02,19:30,0.558,0.846,0.516,1.057,0.766,0.331,0.591,0.545,��,6.5,��
2023/09/02,19:40,0.559,0.846,0.517,1.056,0.766,0.330,0.592,0.547,��,6.6,��
2023/09/02,19:50,0.557,0.844,0.518,1.056,0.766,0.330,0.593,0.545,��,6.9,��
2023/09/02,20:00,0.559,0.847,0.516,1.055,0.766,0.331,0.591,0.544,��,6.9,��
2023/09/02,20:10,0.560,0.846,0.519,1.057,0.766,0.330,0.592,0.545,��,6.8,��
2023/09/02,20:20,0.558,0.847,0.514,1.056,0.766,0.330,0.591,0.547,��,6.7,��
2023/09/02,20:30,0.558,0.845,0.518,1.058,0.766,0.331,0.592,0.545,��,4.8,��
2023/09/02,20:40,0.557,0.846,0.518,1.057,0.767,0.330,0.592,0.545,��,5.9,��
2023/09/02,20:50,0.559,0.845,0.516,1.056,0.767,0.331,0.593,0.545,��,5.4,��
2023/09/02,21:00,0.557,0.847,0.518,1.056,0.766,0.330,0.592,0.545,��,5.5,��
2023/09/02,21:10,0.558,0.843,0.517,1.057,0.765,0.329,0.592,0.543,��,6.0,��
2023/09/02,21:20,0.559,0.848,0.518,1.055,0.766,0.331,0.592,0.546,��,5.6,��
2023/09/02,21:30,0.560,0.847,0.517,1.056,0.765,0.331,0.591,0.544,��,5.6,��
2023/09/02,21:40,0.560,0.846,0.517,1.056,0.766,0.330,0.592,0.544,��,5.8,��
2023/09/02,21:50,0.557,0.847,0.517,1.055,0.766,0.332,0.592,0.547,��,5.4,��
2023/09/02,22:00,0.558,0.847,0.517,1.056,0.764,0.330,0.591,0.545,��,5.0,��
2023/09/02,22:10,0.559,0.847,0.517,1.055,0.766,0.329,0.592,0.546,��,5.4,��
2023/09/02,22:20,0.557,0.846,0.517,1.056,0.767,0.330,0.591,0.544,��,3.8,��
2023/09/02,22:30,0.555,0.846,0.516,1.055,0.766,0.329,0.593,0.545,��,4.7,��
2023/09/02,22:40,0.558,0.845,0.517,1.056,0.765,0.330,0.592,0.547,��,4.4,��
2023/09/02,22:50,0.558,0.846,0.517,1.054,0.764,0.330,0.592,0.543,��,3.7,��
2023/09/02,23:00,0.558,0.849,0.518,1.054,0.764,0.331,0.592,0.545,��,4.4,��
2023/09/02,23:10,0.559,0.845,0.519,1.056,0.765,0.330,0.590,0.545,��,5.0,��
2023/09/02,23:20,0.559,0.846,0.517,1.055,0.767,0.328,0.591,0.546,��,4.2,��
2023/09/02,23:30,0.557,0.847,0.518,1.053,0.766,0.329,0.594,0.546,��,3.7,��
2023/09/02,23:40,0.558,0.846,0.517,1.057,0.768,0.330,0.591,0.545,��쐼,3.1,��
2023/09/02,23:50,0.561,0.847,0.517,1.056,0.766,0.331,0.593,0.545,��쐼,2.0,��
